[[{"header":{"parameterUnit":"m.s-1","parameterCategory":1,"la1":30.2992,"la2":30.254,"lo1":-89.0895,"lo2":-89.0443,"dy":0.0025,"dx":0.0025,"nx":19,"ny":19,"refTime":"2026-03-31T09:00:00:Z","depth":0,"parameterNumber":2,"parameterNumberName":"U-component_of_WINDS"},"data":[0,0,0,-4.1641,-4.1642,-4.1707,-4.1707,-4.1806,-4.1807,0,0,0,0,0,0,0,0,0,0,0,-4.163,-4.1631,-4.1641,-4.1642,-4.1707,-4.1707,-4.1805,-4.1807,0,0,0,0,0,0,0,0,0,0,0,-4.1629,-4.1631,-4.1632,-4.1643,-4.1707,-4.1707,-4.1805,-4.1751,0,0,0,0,0,0,0,0,0,0,-4.1686,-4.1683,-4.163,-4.1632,-4.1643,-4.1707,-4.1707,-4.1748,-4.1754,-4.1783,0,-4.1809,0,-4.181,-4.1814,-4.1814,0,0,0,-4.1636,-4.1678,-4.1688,-4.1632,-4.1644,-4.1707,-4.1676,-4.1751,-4.1759,-4.1791,-4.181,-4.1814,-4.1811,-4.1815,-4.1815,-4.1998,-4.2,0,0,-4.1633,-4.1646,-4.1683,-4.1693,-4.1683,-4.1674,-4.1678,-4.1755,-4.1778,-4.1811,-4.1816,-4.1813,-4.1816,-4.1816,-4.1997,-4.1999,0,0,0,-4.1627,-4.1644,-4.1651,-4.169,-4.17,-4.1676,-4.1681,-4.1774,-4.1776,-4.1817,-4.1814,-4.1816,-4.1818,-4.1996,-4.1998,-4.2066,0,0,0,-4.1624,-4.164,-4.165,-4.1659,-4.1699,-4.1738,-4.1698,-4.177,-4.1778,-4.1814,-4.1816,-4.1819,-4.1995,-4.1997,-4.2062,-4.2096,0,0,0,-4.1623,-4.164,-4.1652,-4.166,-4.1688,-4.1736,-4.1742,-4.1772,-4.1777,-4.1815,-4.1819,-4.1994,-4.1997,-4.2057,-4.2089,-4.2147,0,0,0,-4.1625,-4.1711,-4.1653,-4.1749,-4.1687,-4.1778,-4.1741,-4.1808,-4.1848,-4.1817,-4.1995,-4.1998,-4.2056,-4.2085,-4.2143,-4.2198,-4.2222,0,0,-4.1741,-4.1726,-4.1781,-4.1731,-4.1836,-4.1767,-4.1883,-4.1907,-4.1899,-4.1966,-4.197,-4.2063,-4.2088,-4.2146,-4.2358,-4.2377,0,0,0,-4.1823,-4.1862,-4.1887,-4.1926,-4.1948,-4.197,-4.1975,-4.1985,-4.2042,-4.1936,-4.2101,-4.2115,-4.2149,-4.2174,-4.2191,-4.2219,-4.2011,-4.201,-4.201,-4.2003,-4.1989,-4.2081,-4.2076,-4.2115,-4.2121,-4.2152,-4.2166,-4.214,-4.218,-4.2198,-4.2328,-4.2359,-4.2371,-4.24,-4.2228,-4.2228,-4.2229,-4.2229,-4.2171,-4.2225,-4.2191,-4.2267,-4.2253,-4.2317,-4.2329,-4.2309,-4.2368,-4.2312,-4.2341,-4.228,-4.2393,-4.2418,-4.2234,-4.2233,-4.2232,-4.2232,-4.2231,-4.2286,-4.2309,-4.2321,-4.2378,-4.2424,-4.2417,-4.2476,-4.2461,-4.2448,-4.2477,-4.2495,-4.2494,-4.249,-4.2487,-4.2488,-4.2488,-4.2489,-4.2489,-4.2489,-4.2399,-4.241,-4.246,-4.2494,-4.2518,-4.2549,-4.256,-4.2585,-4.2608,-4.2593,-4.2593,-4.2563,-4.2407,-4.2367,-4.2496,-4.2495,-4.2494,-4.2493,-4.2493,-4.257,-4.253,-4.2608,-4.2633,-4.2672,-4.272,-4.2702,-4.2754,-4.2772,-4.2802,-4.2768,-4.2655,-4.2638,-4.2625,-4.2591,-4.2771,-4.2771,-4.2771,-4.2771,-4.2665,-4.2657,-4.2734,-4.2775,-4.2815,-4.2808,-4.2898,-4.291,-4.2915,-4.2926,-4.2899,-4.2855,-4.2842,-4.2832,-4.2814,-4.2783,-4.3007,-4.3007,-4.3007,-4.2769,-4.2764,-4.2842,-4.2847,-4.2878,-4.2905,-4.299,-4.3041,-4.3039,-4.3016,-4.2934,-4.2924,-4.2853,-4.283,-4.2802,-4.2774,-4.2716,0,0]},{"header":{"parameterUnit":"m.s-1","parameterCategory":1,"la1":30.2992,"la2":30.254,"lo1":-89.0895,"lo2":-89.0443,"dy":0.0025,"dx":0.0025,"nx":19,"ny":19,"refTime":"2026-03-31T09:00:00:Z","depth":0,"parameterNumber":3,"parameterNumberName":"V-component_of_WINDS"},"data":[0,0,0,2.1269,2.1269,2.129,2.129,2.1308,2.1308,0,0,0,0,0,0,0,0,0,0,0,2.1258,2.1258,2.1268,2.1269,2.129,2.129,2.1308,2.1308,0,0,0,0,0,0,0,0,0,0,0,2.1258,2.1258,2.1258,2.1269,2.129,2.129,2.1308,2.1295,0,0,0,0,0,0,0,0,0,0,2.1276,2.1261,2.1258,2.1258,2.1269,2.129,2.129,2.1294,2.1296,2.1295,0,2.1294,0,2.1301,2.1309,2.1309,0,0,0,2.1272,2.126,2.1271,2.1258,2.1269,2.129,2.1281,2.1295,2.1297,2.1296,2.1294,2.1295,2.1301,2.1309,2.1309,2.1299,2.1298,0,0,2.1271,2.1258,2.1269,2.1271,2.1269,2.1281,2.1282,2.1296,2.1292,2.1294,2.1295,2.1302,2.1309,2.1309,2.1299,2.1299,0,0,0,2.1265,2.1257,2.1267,2.127,2.1275,2.1281,2.1283,2.1291,2.1296,2.1296,2.1302,2.1309,2.1309,2.1299,2.1299,2.128,0,0,0,2.1265,2.1254,2.1267,2.1259,2.1275,2.1283,2.1277,2.1295,2.1297,2.1302,2.1309,2.1309,2.1299,2.1299,2.1281,2.1272,0,0,0,2.1258,2.1253,2.1255,2.1259,2.1268,2.1284,2.1289,2.1296,2.1301,2.1309,2.1309,2.1299,2.1299,2.1281,2.1273,2.1267,0,0,0,2.1246,2.1235,2.1255,2.1245,2.1267,2.1272,2.1289,2.1292,2.1297,2.1309,2.1299,2.1299,2.1282,2.1274,2.1268,2.1261,2.1256,0,0,2.1225,2.1232,2.1227,2.1246,2.1244,2.127,2.1265,2.1279,2.129,2.1295,2.1295,2.128,2.1273,2.1268,2.1234,2.1231,0,0,0,2.1217,2.1213,2.1216,2.1221,2.1234,2.1245,2.1262,2.1268,2.1273,2.1291,2.1276,2.1273,2.127,2.1267,2.1264,2.1262,2.1297,2.1297,2.1297,2.1168,2.1186,2.118,2.1201,2.1206,2.1226,2.1232,2.1243,2.1256,2.1253,2.1254,2.1232,2.1228,2.1226,2.1225,2.1251,2.1251,2.1251,2.1251,2.114,2.1139,2.1161,2.1164,2.1183,2.1185,2.1204,2.1214,2.1219,2.1232,2.123,2.1243,2.1222,2.1221,2.125,2.125,2.125,2.125,2.125,2.1111,2.1113,2.1123,2.1135,2.1142,2.1164,2.1169,2.1184,2.1199,2.1197,2.1202,2.1202,2.1205,2.1198,2.1198,2.1198,2.1198,2.1198,2.1198,2.1076,2.1088,2.1091,2.1107,2.1115,2.1126,2.1148,2.1156,2.1168,2.1179,2.1179,2.1194,2.1216,2.1222,2.1197,2.1197,2.1197,2.1197,2.1197,2.1042,2.1054,2.1058,2.1066,2.1087,2.1095,2.1116,2.1131,2.1139,2.1141,2.1158,2.1172,2.1179,2.1181,2.1186,2.1153,2.1153,2.1153,2.1153,2.1018,2.1024,2.1035,2.1047,2.106,2.1081,2.1087,2.1105,2.1125,2.1131,2.1138,2.1146,2.1148,2.1154,2.1158,2.1163,2.1124,2.1124,2.1124,2.0999,2.1008,2.1009,2.1032,2.1051,2.1067,2.1073,2.1085,2.111,2.1123,2.1137,2.1138,2.1151,2.1154,2.1167,2.1171,2.1181,0,0]}]]